Weather History for VTBU - November, 2011

Change the Weather History Date:

Wednesday, November 30, 2011

  Actual Average Record
Temperature  
Mean Temperature 83 °F -  
Max Temperature 91 °F 88 °F 95 °F (2000)
Min Temperature 75 °F 74 °F 66 °F (2007)
Cooling Degree Days 18    
Growing Degree Days 33 (Base 50)    
Moisture  
Dew Point 76 °F    
Average Humidity 81    
Maximum Humidity 100    
Minimum Humidity 55    
Precipitation  
Precipitation 0.00 in - - ()
Sea Level Pressure  
Sea Level Pressure 29.79 in    
Wind  
Wind Speed 4 mph ()    
Max Wind Speed 9 mph    
Max Gust Speed -    
Visibility 4.5 miles    
Events      
Averages and records for this station are not official NWS values.
T = Trace of Precipitation, MM = Missing Value Source: Averaged Metar Reports

Daily Weather History Graph

Daily Weather History Graph

Search for Another Location

Airport or City:

Trip Planner

Search our weather history database for the weather conditions in past years. The results will help you decide how hot, cold, wet, or windy it might be!

Date:

Astronomy

Nov. 30, 2011 Rise Set
Actual Time 6:21 AM ICT 5:47 PM ICT
Civil Twilight 5:58 AM ICT 6:10 PM ICT
Nautical Twilight 5:32 AM ICT 6:36 PM ICT
Astronomical Twilight 5:06 AM ICT 7:02 PM ICT
Moon 10:44 AM ICT (11/30) 10:44 PM ICT (11/30)
Length of Visible Light 12h 12m
Length of Day
11h 26m
Waxing Crescent, 28% of the Moon is Illuminated
Nov 30
Waxing Crescent
Dec 2
First Quarter
Dec 10
Full
Dec 18
Last Quarter
Dec 25
New

Hourly Weather History & Observations

Time (ICT) Temp. Heat Index Dew Point Humidity Pressure Visibility Wind Dir Wind Speed Gust Speed Precip Events Conditions
12:00 AM 78.8 °F - 77.0 °F 94% 29.80 in 3.1 mi North 2.3 mph - N/A   Mist
12:30 AM 78.8 °F - 77.0 °F 94% 29.80 in 3.1 mi North 4.6 mph - N/A   Mist
1:30 AM 77.0 °F - 75.2 °F 94% 29.80 in 3.1 mi NNW 4.6 mph - N/A   Mist
2:30 AM 77.0 °F - 75.2 °F 94% 29.77 in 3.1 mi North 2.3 mph - N/A   Mist
3:30 AM 77.0 °F - 75.2 °F 94% 29.77 in 3.1 mi North 3.5 mph - N/A   Mist
4:30 AM 77.0 °F - 75.2 °F 94% 29.80 in 3.1 mi Calm Calm - N/A   Mist
5:30 AM 75.2 °F - 75.2 °F 100% 29.80 in 2.5 mi Calm Calm - N/A   Mist
6:00 AM 75.2 °F - 75.2 °F 100% 29.80 in 2.5 mi North 2.3 mph - N/A   Scattered Clouds
6:30 AM 75.2 °F - 73.4 °F 94% 29.83 in 2.5 mi North 2.3 mph - N/A   Scattered Clouds
7:00 AM 77.0 °F - 75.2 °F 94% 29.83 in 2.5 mi Calm Calm - N/A   Scattered Clouds
7:30 AM 77.0 °F - 75.2 °F 94% 29.83 in 3.1 mi NNE 3.5 mph - N/A   Scattered Clouds
8:30 AM 82.4 °F 90.9 °F 77.0 °F 84% 29.86 in 4.3 mi North 4.6 mph - N/A   Scattered Clouds
9:00 AM 86.0 °F 96.9 °F 77.0 °F 74% 29.86 in 5.0 mi North 4.6 mph - N/A   Scattered Clouds
9:30 AM 86.0 °F 96.9 °F 77.0 °F 74% 29.86 in 5.6 mi North 4.6 mph - N/A   Scattered Clouds
10:00 AM 87.8 °F 97.6 °F 75.2 °F 66% 29.86 in 6.2 mi NNE 4.6 mph - N/A   Scattered Clouds
10:30 AM 87.8 °F 99.7 °F 77.0 °F 70% 29.83 in 6.2 mi East 4.6 mph - N/A   Scattered Clouds
11:00 AM 89.6 °F 102.2 °F 77.0 °F 66% 29.83 in 6.2 mi SE 6.9 mph - N/A   Scattered Clouds
11:30 AM 89.6 °F 102.2 °F 77.0 °F 66% 29.83 in 6.2 mi South 9.2 mph - N/A   Scattered Clouds
12:00 PM 89.6 °F 99.8 °F 75.2 °F 62% 29.80 in 6.2 mi SSW 6.9 mph - N/A   Scattered Clouds
12:30 PM 89.6 °F 98.2 °F 73.4 °F 59% 29.80 in 6.2 mi South 6.9 mph - N/A   Scattered Clouds
1:00 PM 91.4 °F 100.1 °F 73.4 °F 55% 29.77 in 6.2 mi SSW 6.9 mph - N/A   Scattered Clouds
1:30 PM 91.4 °F 100.1 °F 73.4 °F 55% 29.77 in 6.2 mi South 9.2 mph - N/A   Scattered Clouds
2:00 PM 87.8 °F 99.7 °F 77.0 °F 70% 29.77 in 6.2 mi SW 6.9 mph - N/A   Scattered Clouds
2:30 PM 89.6 °F 102.2 °F 77.0 °F 66% 29.74 in 6.2 mi SSW 9.2 mph - N/A   Scattered Clouds
3:00 PM 89.6 °F 102.2 °F 77.0 °F 66% 29.74 in 6.2 mi SSW 9.2 mph - N/A   Scattered Clouds
3:30 PM 87.8 °F 99.7 °F 77.0 °F 70% 29.74 in 6.2 mi WSW 9.2 mph - N/A   Mostly Cloudy
4:00 PM 87.8 °F 102.5 °F 78.8 °F 75% 29.74 in 6.2 mi SW 6.9 mph - N/A   Mostly Cloudy
4:30 PM 87.8 °F 99.7 °F 77.0 °F 70% 29.74 in 5.6 mi WSW 6.9 mph - N/A   Mostly Cloudy
5:00 PM 86.0 °F 96.9 °F 77.0 °F 74% 29.74 in 5.6 mi SSW 6.9 mph - N/A   Scattered Clouds
5:30 PM 84.2 °F 94.1 °F 77.0 °F 79% 29.74 in 5.0 mi West 5.8 mph - N/A   Scattered Clouds
6:00 PM 84.2 °F 94.1 °F 77.0 °F 79% 29.74 in 5.0 mi NW 3.5 mph - N/A   Scattered Clouds
6:30 PM 84.2 °F 94.1 °F 77.0 °F 79% 29.74 in 4.3 mi WSW 2.3 mph - N/A   Scattered Clouds
7:00 PM 82.4 °F 90.9 °F 77.0 °F 84% 29.74 in 4.3 mi WSW 2.3 mph - N/A   Scattered Clouds
7:30 PM 82.4 °F 90.9 °F 77.0 °F 84% 29.77 in 4.3 mi ENE 2.3 mph - N/A   Unknown
8:00 PM 82.4 °F 90.9 °F 77.0 °F 84% 29.77 in 3.7 mi Calm Calm - N/A   Unknown
8:30 PM 80.6 °F 87.1 °F 77.0 °F 89% 29.77 in 3.7 mi North 2.3 mph - N/A   Unknown
9:00 PM 80.6 °F 87.1 °F 77.0 °F 89% 29.80 in 3.1 mi NNE 3.5 mph - N/A   Mist
9:30 PM 78.8 °F - 77.0 °F 94% 29.80 in 3.1 mi North 2.3 mph - N/A   Mist
10:00 PM 78.8 °F - 77.0 °F 94% 29.80 in 3.1 mi North 2.3 mph - N/A   Mist
10:30 PM 78.8 °F - 75.2 °F 89% 29.80 in 2.5 mi North 3.5 mph - N/A   Mist
11:30 PM 78.8 °F - 75.2 °F 89% 29.80 in 2.5 mi Calm Calm - N/A   Mist